Location: Newark
(45.5000°N, 11.4167°E)
Time: 01:50:12
(UTC+00:00)

Vanguard 2 - Pass Details

Date: 23 August 2019
Orbit: 554 x 2937 km, 32.9° (Epoch: 19 September)

Event Time Altitude Azimuth Distance (km) Brightness Sun altitude
Rises 13:54:36 0° 250° (WSW) 3,780 11.9 42.2°
Reaches altitude 10° 13:57:01 10° 242° (WSW) 3,079 11.8 41.9°
Maximum altitude 14:04:13 39° 177° (S) 2,258 10.7 40.8°
Drops below altitude 10° 14:15:31 10° 115° (ESE) 4,835 11.4 39.1°
Sets 14:20:25 0° 110° (ESE) 6,184 11.8 38.3°
